SWISSCUBE (35932 NORAD) Tracking and Keplerian Element Data

This shows tracking and keplerian element data for the satellite.

Feedback or suggestion? Click here.




ElementValue
Catalog35932
NameSWISSCUBE
Epoch Orbit58806
Epoch Day294.4603223
Epoch Year2020
RAAN120.7865
Inclination98.611
Eccentricity0.0008645
Argument of Perigee101.8855
Mean Anonmoly258.3312
Mean Motion14.56435525
Decay Rate1.33E-06
L11 35932U 09051B 20294.46032230 .00000133 00000-0 41007-4 0 9997
L22 35932 98.6110 120.7865 0008645 101.8855 258.3312 14.56435525588060

Live tracking and technical data element details for SWISSCUBE (NORAD 35932). SWISSCUBE can be tracked NOW for your location showing map with azimuth and elevation plus other details from your city location.

Track the satellite on the map from your city or location and see movement details for azimuth, elevation, latitude, longitude, range, height, and movement on the map or in text.







IsCatalogInMostPopularTable: catalog: 35932, numindb: 11888
Update: records affected: 1



GetName: 35932 SWISSCUBE

Hit Count: updated at: Thu, 22 Oct 2020 03:56:00 GMT